Location: Marne
(34.0056°N, 117.9064°W)
Time: 18:39:35
(UTC+00:00)

Cosmos 2237 Rocket - Pass Details

Date: 18 January 2020
Orbit: 836 x 848 km, 71.0° (Epoch: 26 February)

Event Time Altitude Azimuth Distance (km) Brightness Sun altitude
Rises 03:14:11 0° 339° (NNW) 3,391 5.5 -26.0°
Reaches altitude 10° 03:16:38 10° 340° (NNW) 2,453 4.7 -26.5°
Enters shadow 03:22:13 88° 36° (NE) 841 2.0 -27.6°
